Home > Weather > Kalispell > Past weeks

Flag for USA Weather for the Past 2 Weeks in Kalispell, Montana, USA

Now
63 °F

Sunny.


Feels Like: 63 °F
Forecast: 33 / 69 °F
Wind: N/A

Location: Kalispell - Glacier Park International

Current Time: May 1, 2016 at 1:30:37 PM

Latest Report: May 1, 2016 at 12:55 PM


Visibility: 10 mi

Pressure: 30.22 "Hg (27.18 "Hg at 902m altitude)

Humidity: 34%

Dew Point: 34 °F

Location of KalispellLocation

Historic Weather in Kalispell — Graph

°F

Kalispell Temperature Yesterday

Maximum temperature yesterday: 62 °F (at 3:55 PM)
Minimum temperature yesterday: 33 °F (at 6:55 AM)
Average temperature yesterday: 50 °F

High & Low Weather Summary for the Past Weeks

 TemperatureHumidityPressure
High79 °F (Apr 20, 3:55 PM)100% (Apr 23, 1:55 AM)30.47 "Hg (Apr 23, 1:55 AM)
Low29 °F (Apr 17, 6:55 AM)11% (Apr 18, 2:55 PM)29.56 "Hg (Apr 22, 5:55 PM)
Average52 °F57%30.05 "Hg
* Reported Apr 16 11:55 AM — May 1 11:55 AM, Kalispell, Weather by CustomWeather, © 2016

Note: Actual official high and low records may vary slightly from our data, if they occured in-between our weather recording intervals... More about our weather records

Advertising

Kalispell Weather History for the Previous 24 Hours

Scroll right to see more
 ConditionsComfort  
Time TempWeatherWind HumidityBarometerVisibility
11:55 AM
Sun, May 1
60 °FSunny.3 mph39%30.24 "Hg10 mi
10:55 AM58 °FSunny.6 mph44%30.27 "Hg10 mi
9:55 AM54 °FSunny.No wind53%30.29 "Hg10 mi
8:55 AM50 °FSunny.8 mph59%30.30 "Hg10 mi
7:55 AM45 °FSunny.3 mph74%30.32 "Hg10 mi
6:55 AM36 °FClear.5 mph92%30.32 "Hg10 mi
5:55 AM38 °FClear.5 mph90%30.30 "Hg10 mi
4:55 AM36 °FClear.3 mph92%30.31 "Hg10 mi
3:55 AM39 °FClear.5 mph82%30.30 "Hg10 mi
2:55 AM38 °FClear.No wind90%30.30 "Hg10 mi
1:55 AM44 °FPassing clouds.No wind71%30.29 "Hg10 mi
12:55 AM47 °FClear.5 mph61%30.29 "Hg10 mi
11:55 PM
Sat, Apr 30
49 °FPassing clouds.9 mph59%30.28 "Hg10 mi
10:55 PM52 °FOvercast.8 mph53%30.29 "Hg10 mi
9:55 PM56 °FOvercast.7 mph42%30.27 "Hg10 mi
8:55 PM57 °FOvercast.9 mph39%30.26 "Hg10 mi
7:55 PM59 °FOvercast.7 mph35%30.25 "Hg10 mi
6:55 PM61 °FOvercast.13 mph32%30.25 "Hg10 mi
5:55 PM62 °FPartly sunny.7 mph31%30.24 "Hg10 mi
4:55 PM62 °FOvercast.12 mph32%30.22 "Hg10 mi
3:55 PM62 °FOvercast.13 mph32%30.21 "Hg10 mi
2:55 PM60 °FMore clouds than sun.6 mph35%30.21 "Hg10 mi
1:55 PM61 °FScattered clouds.13 mph34%30.19 "Hg10 mi
Weather by CustomWeather, © 2016

See weather overviewHow to use our weather pages